QPF
0.04 0.03 0.03 0.03 0.04 0.04 0.04 0.03 0.01 0.00 0.00 0.00 0.00 0.00 0.00 0.00 0.00 0.00 0.00 0.00 0.00 0.00
0.00 0.00 0.01 0.03 0.02 0.02 0.01 0.00 0.00 0.00 0.00 0.00 0.00 0.00 0.00 0.00 0.00 0.00 0.00 0.00 0.00 0.00
0.00 0.00 0.00 0.00 0.00 0.00 0.00 0.00 0.00 0.00 0.00 0.00 0.00 0.00 0.00 0.00 0.00 0.00 0.00 0.00 0.00 0.00
0.00 0.00 0.00 0.00 0.00 0.00 0.00 0.00 0.00 0.00 0.00 0.00 0.00 0.00 0.00 0.00 0.00 0.00 0.00 0.00 0.00 0.00
0.00 0.00 0.00 0.00 0.00 0.00 0.00 0.00 0.00 0.00 0.00 0.00 0.00 0.00 0.00 0.00 0.00 0.00 0.00 0.00 0.00 0.00
0.00 0.00 0.00 0.00 0.00 0.00 0.00 0.00 0.00 0.00 0.00 0.00 0.00 0.00 0.00 0.00 0.00 0.00 0.00 0.00 0.00 0.00
0.00 0.00 0.00 0.00 0.00 0.00 0.00 0.00 0.00 0.00 0.00 0.00 0.00 0.00 0.00 0.00 0.00 0.00 0.00 0.00 0.00 0.00
0.00 0.00 0.00 0.00 0.00 0.00 0.00 0.00 0.00 0.00 0.00 0.00 0.00 0.00 0.00 0.00 0.00 0.00 0.00 0.00 0.00 0.00
0.00 0.00 0.00 0.00 0.00 0.00 0.00 0.00 0.00 0.00 0.00 0.00 0.00 0.00 0.00 0.00 0.00 0.00 0.00 0.00 0.00 0.00
0.00 0.00 0.00 0.00 0.00 0.00 0.00 0.00 0.00 0.00 0.00 0.00 0.00 0.00 0.00 0.00 0.00 0.00 0.00 0.00 0.00 0.00
0.00 0.00 0.00 0.00 0.00 0.00 0.00 0.00 0.00 0.00 0.00 0.00 0.00 0.00 0.00 0.00 0.00 0.00 0.00 0.00 0.00 0.00
0.00 0.00 0.00 0.00 0.00 0.00 0.00 0.00 0.00 0.00 0.00 0.00 0.00 0.00 0.00 0.00 0.00 0.00 0.00 0.00 0.00 0.00
0.00 0.00 0.00 0.00 0.00 0.00 0.00 0.00 0.00 0.00 0.00 0.00 0.00 0.00 0.00 0.00 0.00 0.00 0.00 0.00 0.00 0.00
0.00 0.00 0.00 0.00 0.00 0.00 0.00 0.00 0.00 0.00 0.00 0.00 0.00 0.00 0.00 0.00 0.00 0.00 0.00 0.00 0.00 0.00
MSLP
1013.61 1013.82 1013.91 1014.18 1014.39 1015.05 1015.67 1016.08 1016.29 1016.88 1017.22 1017.35 1017.63 1017.95 1018.53 1018.89 1018.99 1018.83 1018.87 1019.11 1019.22 1019.14
1013.51 1013.88 1014.22 1014.65 1014.99 1015.46 1015.43 1015.90 1016.53 1016.86 1017.57 1017.92 1017.83 1018.09 1018.53 1019.05 1019.19 1019.07 1018.89 1018.95 1019.08 1019.07
1013.97 1014.02 1014.12 1014.45 1015.02 1015.75 1016.24 1016.66 1016.86 1016.65 1016.91 1017.67 1018.05 1018.37 1018.26 1018.95 1019.38 1019.25 1019.15 1019.18 1019.06 1019.05
1014.29 1014.50 1014.76 1015.09 1015.38 1015.55 1016.19 1016.86 1017.39 1017.28 1017.82 1017.51 1017.97 1018.33 1018.50 1019.11 1019.35 1019.24 1019.25 1019.16 1019.16 1019.18
1014.79 1015.00 1015.27 1015.47 1015.74 1016.15 1016.48 1016.87 1017.19 1017.49 1017.91 1017.88 1018.02 1018.43 1018.76 1019.18 1019.41 1019.34 1019.49 1019.43 1019.36 1019.18
1015.16 1015.43 1015.72 1015.95 1016.15 1016.45 1016.83 1017.20 1017.54 1017.91 1018.04 1018.02 1018.35 1018.78 1019.10 1019.31 1019.39 1019.49 1019.47 1019.67 1019.57 1019.41
1015.20 1015.47 1015.85 1016.16 1016.55 1016.85 1017.18 1017.55 1017.87 1018.01 1018.06 1018.29 1018.62 1018.98 1019.21 1019.41 1019.45 1019.62 1019.75 1019.69 1019.35 1019.49
1015.29 1015.55 1015.93 1016.38 1016.75 1017.13 1017.48 1017.77 1017.99 1018.18 1018.46 1018.63 1018.81 1019.13 1019.26 1019.32 1019.33 1019.46 1019.47 1019.39 1019.24 1019.37
1015.37 1015.61 1016.04 1016.45 1016.91 1017.38 1017.73 1017.96 1018.23 1018.50 1018.68 1018.88 1019.03 1019.03 1019.04 1019.12 1019.16 1019.04 1019.21 1019.32 1019.36 1019.41
1015.13 1015.60 1016.03 1016.46 1016.99 1017.42 1017.79 1018.03 1018.30 1018.56 1018.79 1018.91 1018.90 1018.90 1018.85 1018.88 1018.93 1019.07 1019.18 1019.35 1019.45 1019.47
1014.90 1015.33 1015.79 1016.32 1016.90 1017.36 1017.68 1017.96 1018.22 1018.35 1018.53 1018.69 1018.69 1018.66 1018.62 1018.75 1019.01 1019.13 1019.10 1019.32 1019.49 1019.53
1014.43 1015.03 1015.54 1015.95 1016.42 1016.96 1017.33 1017.70 1017.85 1017.97 1018.16 1018.39 1018.41 1018.43 1018.50 1018.62 1018.96 1019.17 1019.16 1019.32 1019.39 1019.48
1014.05 1014.59 1015.20 1015.58 1016.01 1016.52 1016.94 1017.28 1017.61 1017.81 1017.85 1017.99 1018.07 1018.15 1018.18 1018.32 1018.81 1019.11 1019.16 1019.23 1019.35 1019.27
1013.62 1014.30 1014.78 1015.30 1015.64 1016.19 1016.79 1017.08 1017.23 1017.38 1017.50 1017.61 1017.70 1017.72 1017.81 1017.90 1018.44 1018.74 1019.02 1019.20 1019.34 1019.21
Thickness
5638 5636 5636 5636 5635 5630 5625 5621 5620 5614 5610 5609 5607 5604 5599 5595 5593 5596 5595 5592 5589 5588
5627 5624 5622 5621 5618 5615 5615 5611 5605 5602 5597 5593 5593 5590 5586 5582 5579 5581 5582 5580 5578 5577
5611 5611 5611 5610 5606 5600 5597 5593 5592 5594 5591 5584 5580 5577 5577 5572 5567 5567 5566 5565 5566 5564
5603 5599 5596 5592 5590 5590 5585 5580 5577 5578 5574 5574 5570 5566 5565 5558 5556 5555 5553 5552 5551 5549
5587 5584 5582 5580 5577 5574 5571 5569 5567 5564 5561 5560 5559 5555 5551 5547 5543 5542 5538 5537 5537 5536
5576 5573 5569 5567 5565 5562 5559 5556 5552 5549 5548 5548 5544 5539 5536 5533 5531 5528 5526 5522 5522 5521
5567 5564 5560 5557 5553 5550 5547 5543 5540 5539 5537 5534 5530 5526 5523 5521 5519 5514 5511 5510 5511 5507
5555 5553 5549 5545 5542 5538 5534 5531 5528 5526 5523 5520 5518 5514 5511 5509 5507 5504 5502 5500 5499 5495
5543 5541 5537 5533 5529 5525 5521 5519 5516 5513 5510 5507 5505 5504 5502 5499 5497 5496 5493 5489 5486 5483
5534 5530 5526 5522 5518 5514 5510 5508 5505 5502 5499 5497 5495 5494 5493 5491 5488 5485 5482 5478 5474 5472
5524 5521 5517 5512 5508 5504 5501 5498 5495 5493 5491 5487 5486 5486 5485 5482 5477 5473 5472 5467 5464 5461
5517 5512 5508 5504 5501 5496 5492 5488 5486 5485 5482 5478 5477 5476 5475 5472 5466 5463 5461 5458 5454 5451
5507 5504 5498 5496 5492 5487 5483 5479 5475 5473 5471 5469 5467 5466 5465 5462 5456 5452 5451 5448 5445 5444
5499 5493 5489 5485 5482 5477 5472 5469 5467 5465 5463 5461 5459 5457 5456 5455 5448 5445 5441 5438 5435 5434